Showing default

SIMSAT 2, 26366

Orbit data source: Space-Track

SIMSAT 2, 26366 is a payload satellite owned by Eurockot (CIS) in LEO that was launched on Tue, 16 May 2000 UTC via an ROKOT launch vehicle from the Plesetsk Missile And Space Complex (PKMTR). Payload-class satellites include a variety of spacecraft equipped with specific instruments for various scientific and technological missions. These include communications satellites like Starlink; space stations such as the ISS; scientific satellites like the Hubble; Earth observation satellites from companies like Planet Labs, Umbra, and HawkEye 360; GPS; miniature CubeSats for education and research; and military/defense satellites.

Loading next visibility...
Identifier
26366, 2000-026B
Orbit
LEO
Last TLE update
14 hours ago
Origin
Manufacturer
Khrunichev
Mission
Commercial Technology
Bus & Motor
SIMSAT, Unknown motor
Mass
660 kg wet, 660 kg dry
Launch date (UTC)
2000-05-16 (25 years ago)
Launch vehicle
ROKOT
Launch site
Plesetsk Missile And Space Complex (PKMTR)
Object type
Payload
Rocket body
Debris
Shape & HBR
Box + 1 Arm, 3.5 m
Radar Cross Section
9.625 m², Large (>1 m²)

Expand to show TLE details & history

TLE from 14 hours ago
0 SIMSAT 2
1 26366U 00026B   25189.79273328  .00001846  00000-0  67395-4 0  9990
2 26366  86.3469 296.3359 0008608 114.7441 245.4703 15.27355016390767
Epoch: 2025-07-08T19:01Z
TLE epoch observation values (Epoch: 2025-07-08T19:01:32.155Z)
Latitude
Longitude
83.96929°
Altitude
489.361 km
Speed
7.619 km/s
True Right ascension
19h 45m 20s
True Declination
0° 00' 00"
Sunlit
Object was in full shadow at epoch
Visualization orbit readout
Latitude
-33.92601°
Longitude
-93.85924°
Altitude
497.826 km
Speed
7.614 km/s
Apparent Right ascension
08h 16m 07s
Apparent Declination
-36° 46' 49"
Sunlit
Object is in daylight
Visualization observer readout
Local Sidereal Time
20:41:54
Azimuth
60.214° ENE
Elevation
-84.054°
Doppler factor
1
Orbital elements
Apogee altitude
486.462 km
Perigee altitude
474.654 km
Semi-major axis
6,858.695 km
Eccentricity
0.00086
Inclination
86.3469°
RAAN
296.3359°
Arg. of periapsis
114.7441°
True anomaly
Unknown
Mean anomaly
245.4703°
Eccentric anomaly
Unknown
Mean motion
3.82103 °/min
Orbital period
94.22 mins
BSTAR
0.000067395
Loading maneuver chart data...
Loading SW <> Apogee altitude chart data...
Loading historical data...
Loading historical data...
Loading historical data...
Loading historical data...
Loading historical data...
Loading historical data...
Loading historical data...
Other satellites on launch #26 in the year 2000 (2000-05-16 UTC)

SIMSAT 2 Visibility forecast

Observer location: undefined°, undefined°

Span
Click to sort rows by Start time (UTC) header in descending order
Start Az.
Max El. time (UTC)
Max El. Az.
Max El.
End time (UTC)
End Az.
6 mins2025-07-09 19:10:13.771Z2.405° NNE2025-07-09 19:13:13.771Z71.384° E43.621°2025-07-09 19:16:13.771Z171.311° S
5 mins2025-07-10 07:20:13.771Z149° SSE2025-07-10 07:22:13.771Z71.384° E35.4°2025-07-10 07:25:13.771Z15.398° NNE
|